Regional Weather Roundup
Issued by NWS

Home | Current Version | Previous Version | Text Only | Print | Product List | Glossary On
Versions: 1 2 3 4 5 6 7 8 9 10 11 12 13 14 15 16 17 18 19 20 21 22 23 24 25 26 27 28 29 30 31 32 33 34 35 36 37 38 39 40 41 42 43 44 45 46 47 48 49 50
000
ASUS42 KKEY 282010
RWRKEY

FLORIDA REGIONAL WEATHER ROUNDUP FOR THE FLORIDA KEYS
NATIONAL WEATHER SERVICE KEY WEST FLORIDA
400 PM EDT MON JUL 28 2014

...SOUTH FLORIDA AND THE KEYS...

CITY           SKY/WX    TMP DP  RH WIND       PRES   REMARKS
FORT MYERS     PTSUNNY   89  77  67 W13       30.04F HX 101
SW REGIONAL AP PTSUNNY   87  75  67 SW10      30.04F HX  96
NAPLES         PTSUNNY   89  79  72 SW9       30.05F HX 104
MIAMI          PTSUNNY   94  69  44 VRB5      30.03F HX  99
WEST KENDALL   MOSUNNY   97  69  40 W8        30.03F HX 103
HOMESTEAD      SUNNY     91  76  61 SE10      30.03F HX 104
MARATHON       PTSUNNY   90  78  68 CALM      30.05F HX 104
BOCA CHICA NAS PTSUNNY   91  76  61 NW6       30.05F HX 103
KEY WEST INTL  PTSUNNY   90  76  63 N3        30.06F HX 101

...INTERNATIONAL WEATHER...

CITY           SKY/WX    TMP DP  RH WIND       PRES   REMARKS
NASSAU BAHAMAS PTSUNNY   90  72  55 N8        30.06  HX  96
CANCUN MEXICO  SUNNY     91  72  52 E10       30.05F HX  98
COZUMEL MEXICO MOSUNNY   88  77  70 E12       30.04F HX 100

ADJACENT COASTAL WATERS...

STATION/POSITION TIME  SKY/WX   TEMP    WIND        PRES    WAVE
                                AIR SEA DIR/SP/G            HT/PER
                 (UTC)          (F)     (DEG/KT/KT) (MB)    (FT/S)
PULASKI SHOAL LI 2000            89      CALM  /  3 1018.1F
SAND KEY         2000            86      70/  3/  5 1017.9F
SOMBRERO KEY     2000            87     280/  2/  3 1018.6F
LONG KEY         2000            88 92  290/  2/  3 1018.5F
MOLASSES REEF    2000            86 87  190/  5/  5 1017.6F
FOWEY ROCKS      2000            87 88  160/ 11/ 11 1017.4F
Buoy 42080       NOT AVBL

$$



USA.gov is the U.S. government's official web portal to all federal, state and local government web resources and services.